Location: Unspecified
(0.0000°N, 0.0000°E)
Time: 01:09:51
(UTC+00:00)

Iridium 4 Rocket - Pass Details

Date: 31 October 2025
Orbit: 579 x 886 km, 86.9° (Epoch: 29 March)

Event Time Altitude Azimuth Distance (km) Brightness Sun altitude
Rises 18:21:17 0° 190° (S) 3,435 7.2 -9.1°
Reaches altitude 10° 18:23:45 10° 196° (SSW) 2,520 6.6 -9.7°
Maximum altitude 18:29:17 49° 269° (W) 1,132 4.9 -11.1°
Drops below altitude 10° 18:34:50 10° 343° (NNW) 2,533 6.2 -12.4°
Sets 18:37:20 0° 348° (NNW) 3,454 6.9 -13.0°
